Weather History for KOGA - November, 2012

Change the Weather History Date:

Sunday, November 18, 2012

  Actual Average Record
Temperature  
Mean Temperature 46 °F -  
Max Temperature 66 °F 49 °F 77 °F (2008)
Min Temperature 25 °F 22 °F 3 °F (2000)
Degree Days  
Heating Degree Days 20    
Moisture  
Dew Point 30 °F    
Average Humidity 63    
Maximum Humidity 90    
Minimum Humidity 28    
Precipitation  
Precipitation 0.00 in - - ()
Sea Level Pressure  
Sea Level Pressure 29.96 in    
Wind  
Wind Speed 1 mph (WSW)    
Max Wind Speed 8 mph    
Max Gust Speed -    
Visibility 10 miles    
Events      
Averages and records for this station are not official NWS values.
T = Trace of Precipitation, MM = Missing Value Source: NWS Daily Summary

Daily Weather History Graph

Daily Weather History Graph

Search for Another Location

Airport or City:

Trip Planner

Search our weather history database for the weather conditions in past years. The results will help you decide how hot, cold, wet, or windy it might be!

Date:

Astronomy

Nov. 18, 2012 Rise Set
Actual Time 6:39 AM MST 4:25 PM MST
Civil Twilight 6:09 AM MST 4:55 PM MST
Nautical Twilight 5:35 AM MST 5:28 PM MST
Astronomical Twilight 5:02 AM MST 6:01 PM MST
Moon 11:06 AM MST (11/18) 9:48 PM MST (11/18)
Length of Visible Light 10h 45m
Length of Day
9h 46m
Waxing Crescent, 31% of the Moon is Illuminated
Nov 18
Waxing Crescent
Nov 20
First Quarter
Nov 28
Full
Dec 6
Last Quarter
Dec 13
New

Hourly Weather History & Observations

Time (MST) Temp. Windchill Dew Point Humidity Pressure Visibility Wind Dir Wind Speed Gust Speed Precip Events Conditions
12:15 AM 35.4 °F - 27.7 °F 73% 30.02 in 10.0 mi Calm Calm - N/A   Clear
12:55 AM 31.8 °F - 25.0 °F 76% 30.02 in 10.0 mi Calm Calm - N/A   Clear
1:15 AM 31.6 °F - 25.7 °F 79% 30.02 in 10.0 mi Calm Calm - N/A   Clear
1:35 AM 30.6 °F - 25.2 °F 80% 30.02 in 10.0 mi Calm Calm - N/A   Clear
1:55 AM 31.3 °F 26.6 °F 25.5 °F 79% 30.01 in 10.0 mi WSW 4.6 mph - N/A   Clear
2:15 AM 30.4 °F 25.6 °F 25.2 °F 81% 30.01 in 10.0 mi West 4.6 mph - N/A   Clear
2:35 AM 32.4 °F - 27.0 °F 80% 30.00 in 10.0 mi Calm Calm - N/A   Clear
2:55 AM 32.2 °F - 26.6 °F 80% 29.99 in 10.0 mi Calm Calm - N/A   Clear
3:15 AM 31.6 °F - 26.1 °F 80% 29.99 in 10.0 mi Calm Calm - N/A   Clear
3:35 AM 32.0 °F - 25.7 °F 78% 29.98 in 10.0 mi Calm Calm - N/A   Clear
3:55 AM 32.5 °F - 26.8 °F 79% 29.97 in 10.0 mi Calm Calm - N/A   Clear
4:15 AM 32.2 °F - 27.0 °F 81% 29.97 in 10.0 mi Calm Calm - N/A   Clear
4:35 AM 32.0 °F - 26.2 °F 79% 29.97 in 10.0 mi Calm Calm - N/A   Clear
4:55 AM 29.1 °F 25.4 °F 24.6 °F 83% 29.97 in 10.0 mi WSW 3.5 mph - N/A   Clear
5:15 AM 28.4 °F - 24.3 °F 84% 29.97 in 10.0 mi Calm Calm - N/A   Clear
5:35 AM 27.3 °F - 23.4 °F 85% 29.98 in 10.0 mi Calm Calm - N/A   Clear
5:55 AM 30.7 °F - 26.4 °F 84% 29.97 in 10.0 mi Calm Calm - N/A   Clear
6:15 AM 27.7 °F - 23.9 °F 86% 29.98 in 10.0 mi Calm Calm - N/A   Clear
6:35 AM 29.1 °F - 26.4 °F 90% 29.98 in 10.0 mi Calm Calm - N/A   Clear
6:55 AM 25.2 °F - 21.9 °F 87% 29.98 in 10.0 mi Calm Calm - N/A   Clear
7:15 AM 27.9 °F - 25.0 °F 89% 29.98 in 10.0 mi Calm Calm - N/A   Clear
7:35 AM 30.0 °F - 25.9 °F 85% 29.97 in 10.0 mi Calm Calm - N/A   Clear
7:55 AM 31.8 °F - 27.3 °F 83% 29.97 in 10.0 mi Calm Calm - N/A   Clear
8:15 AM 34.0 °F - 28.0 °F 79% 29.96 in 10.0 mi Calm Calm - N/A   Clear
8:35 AM 37.4 °F - 29.3 °F 73% 29.96 in 10.0 mi Calm Calm - N/A   Clear
8:55 AM 41.4 °F - 30.2 °F 65% 29.96 in 10.0 mi Calm Calm - N/A   Clear
9:15 AM 43.9 °F 42.3 °F 31.8 °F 63% 29.97 in 10.0 mi NW 3.5 mph - N/A   Clear
9:35 AM 48.7 °F - 32.5 °F 54% 29.97 in 10.0 mi Calm Calm - N/A   Clear
9:55 AM 51.4 °F - 32.9 °F 49% 29.97 in 10.0 mi Calm Calm - N/A   Clear
10:15 AM 53.1 °F - 32.0 °F 45% 29.96 in 10.0 mi Calm Calm - N/A   Clear
10:35 AM 54.5 °F - 32.0 °F 42% 29.95 in 10.0 mi Calm Calm - N/A   Clear
10:55 AM 57.2 °F - 30.7 °F 37% 29.94 in 10.0 mi Calm Calm - N/A   Clear
11:15 AM 59.7 °F - 31.3 °F 34% 29.93 in 10.0 mi Calm Calm - N/A   Clear
11:35 AM 60.4 °F - 32.0 °F 34% 29.91 in 10.0 mi Calm Calm - N/A   Clear
11:55 AM 61.2 °F - 32.0 °F 33% 29.91 in 10.0 mi SSW 3.5 mph - N/A   Clear
12:15 PM 63.1 °F - 32.5 °F 32% 29.90 in 10.0 mi SSW 3.5 mph - N/A   Clear
12:35 PM 64.0 °F - 32.4 °F 31% 29.90 in 10.0 mi West 3.5 mph - N/A   Clear
12:55 PM 64.2 °F - 32.4 °F 30% 29.90 in 10.0 mi Calm Calm - N/A   Clear
1:15 PM 65.1 °F - 32.9 °F 30% 29.89 in 10.0 mi West 3.5 mph - N/A   Clear
1:35 PM 65.5 °F - 32.9 °F 30% 29.89 in 10.0 mi WSW 3.5 mph - N/A   Clear
1:55 PM 66.0 °F - 32.7 °F 29% 29.89 in 10.0 mi SW 3.5 mph - N/A   Clear
2:15 PM 66.0 °F - 32.7 °F 29% 29.88 in 10.0 mi Calm Calm - N/A   Clear
2:35 PM 66.2 °F - 32.4 °F 28% 29.89 in 10.0 mi SW 3.5 mph - N/A   Clear
2:55 PM 66.2 °F - 32.0 °F 28% 29.89 in 10.0 mi Calm Calm - N/A   Clear
3:15 PM 66.0 °F - 32.0 °F 28% 29.89 in 10.0 mi Calm Calm - N/A   Clear
3:35 PM 65.5 °F - 31.3 °F 28% 29.89 in 10.0 mi Calm Calm - N/A   Clear
3:55 PM 63.9 °F - 30.9 °F 29% 29.90 in 10.0 mi Calm Calm - N/A   Clear
4:15 PM 61.0 °F - 32.2 °F 34% 29.90 in 10.0 mi South 6.9 mph - N/A   Clear
4:35 PM 54.3 °F - 35.6 °F 49% 29.91 in 10.0 mi SSE 6.9 mph - N/A   Clear
4:55 PM 51.8 °F - 35.8 °F 54% 29.91 in 10.0 mi South 8.1 mph - N/A   Clear
5:15 PM 49.6 °F - 35.4 °F 58% 29.93 in 10.0 mi Calm Calm - N/A   Clear
5:35 PM 48.4 °F - 35.4 °F 61% 29.94 in 10.0 mi Calm Calm - N/A   Clear
5:55 PM 47.5 °F - 35.6 °F 63% 29.94 in 10.0 mi SSE 6.9 mph - N/A   Clear
6:15 PM 46.9 °F - 36.0 °F 66% 29.95 in 10.0 mi Calm Calm - N/A   Clear
6:35 PM 47.7 °F - 36.3 °F 65% 29.96 in 10.0 mi SW 4.6 mph - N/A   Clear
7:15 PM 44.1 °F - 35.1 °F 71% 29.98 in 10.0 mi Calm Calm - N/A   Clear
7:35 PM 40.8 °F 35.6 °F 33.3 °F 74% 29.97 in 10.0 mi SW 8.1 mph - N/A   Clear
7:55 PM 42.1 °F 39.2 °F 33.4 °F 71% 29.98 in 10.0 mi SSW 4.6 mph - N/A   Clear
8:15 PM 39.7 °F - 32.4 °F 75% 29.99 in 10.0 mi Calm Calm - N/A   Clear
8:35 PM 38.5 °F - 32.0 °F 78% 29.99 in 10.0 mi Calm Calm - N/A   Clear
8:55 PM 34.7 °F - 29.8 °F 82% 30.00 in 10.0 mi Calm Calm - N/A   Clear
9:35 PM 30.7 °F 23.3 °F 27.3 °F 87% 30.00 in 10.0 mi WSW 8.1 mph - N/A   Clear
9:55 PM 32.2 °F 25.8 °F 29.3 °F 89% 30.00 in 10.0 mi West 6.9 mph - N/A   Clear
10:15 PM 32.9 °F 26.7 °F 28.8 °F 85% 30.00 in 10.0 mi West 6.9 mph - N/A   Clear
10:55 PM 32.4 °F 25.3 °F 28.0 °F 84% 30.01 in 10.0 mi West 8.1 mph - N/A   Clear
11:15 PM 35.6 °F 29.9 °F 28.6 °F 76% 30.01 in 10.0 mi WSW 6.9 mph - N/A   Clear
11:35 PM 36.9 °F 33.1 °F 28.4 °F 71% 30.02 in 10.0 mi WSW 4.6 mph - N/A   Clear
11:55 PM 32.5 °F 28.1 °F 27.0 °F 80% 30.02 in 10.0 mi West 4.6 mph - N/A   Clear